Miscellaneous Local Product
Issued by NWS North Platte, NE

Home | Current Version | Previous Version | Text Only | Print | Product List | Glossary On
Versions: 1 2 3 4 5 6 7 8 9 10 11 12 13 14 15 16 17 18 19 20 21 22 23 24 25 26 27 28 29 30 31 32 33 34 35 36 37 38 39 40 41 42 43 44 45 46 47 48 49 50
727
AXUS43 KLBF 131910
MISLBF


WESTERN AND NORTH CENTRAL NEBRASKA HOURLY WEATHER ROUNDUP
NATIONAL WEATHER SERVICE NORTH PLATTE NE
100 PM CST WED DEC 13 2017

NOTE: "FAIR" INDICATES FEW OR NO CLOUDS BELOW 12,000 FEET WITH NO
SIGNIFICANT WEATHER AND/OR OBSTRUCTIONS TO VISIBILITY.

NOTE: STATIONS NOT REPORTING VARIABLES SUCH AS SKY/WEATHER OR
PRESSURE ARE PROVIDED BY RAWS AND APRS NETWORKS AND ARE NOT UNDER
NATIONAL WEATHER SERVICE QUALITY CONTROL.

...OBSERVATIONS IN AND NEAR THE EASTERN PANHANDLE OF NEBRASKA...

CITY           SKY/WX    TMP DP  RH WIND       PRES   REMARKS
PINE RIDGE     SUNNY     48  23  37 NW17G25   30.03F
GORDON         FAIR      46  23  39 NW21G31   30.00F
CHADRON        SUNNY     48  17  29 NW23G32   30.04F
ALLIANCE       SUNNY     47  16  29 NW26G38   30.03F
SIDNEY         SUNNY     50  14  23 NW32G38   30.04F
CRESCENT LAKE    N/A     47  15  27 NW20G28     N/A
$$

...OBSERVATIONS IN NORTHERN NEBRASKA AND FAR SOUTHERN SOUTH DAKOTA...

CITY           SKY/WX    TMP DP  RH WIND       PRES   REMARKS
WINNER         FAIR      48  28  46 NW30G40   29.91F
VALENTINE      SUNNY     47  25  42 NW25G38   29.95F
THEDFORD       SUNNY     47  24  39 NW25G35   29.97F
AINSWORTH      MOSUNNY   46  28  50 NW25G33   29.94S
O`NEILL        SUNNY     46  29  52 NW33G39   29.88F
ORD            SUNNY     50  25  37 NW23G43   29.88F
BROKEN BOW     SUNNY     50  24  36 NW29G44   29.92S
HALSEY           N/A     47  22  36 NW16G31     N/A
BUTTE            N/A     44  30  58 NW21G32     N/A
CHAMBERS         N/A     48  27  44 N12         N/A
EWING            N/A     46  29  52 NW21G29     N/A
$$

...OBSERVATIONS IN SOUTHWEST NEBRASKA AND FAR NORTHEAST COLORADO...

CITY           SKY/WX    TMP DP  RH WIND       PRES   REMARKS
WRAY           FAIR      54  12  19 NW24G31   30.05F
HOLYOKE        FAIR      55  14  19 NW33G43   30.04F
IMPERIAL       SUNNY     52  15  23 NW26G33   30.01F
OGALLALA       SUNNY     52  16  23 NW25G33   30.00F
NORTH PLATTE   SUNNY     53  14  21 NW25G32   29.97F
MCCOOK         SUNNY     55  17  22 NW32G45   29.97F
LEXINGTON      SUNNY     53  19  26 NW28G37   29.94F
STAPLETON        N/A     47  23  38 NW8G16      N/A
GOTHENBURG       N/A     49  18  29 NW20        N/A
CALLAWAY         N/A     49  24  37 NW26        N/A
$$

...OBSERVATIONS IN CENTRAL LINCOLN COUNTY AREA...

CITY           SKY/WX    TMP DP  RH WIND       PRES   REMARKS
N.P. AIRPORT   SUNNY     53  14  21 NW25G32   29.97F
N.P. DOWNTOWN    N/A     51  17  26 NW14G26     N/A
N.P. SOUTHEAST   N/A     50  17  26 NW13G26     N/A
N.P. HILLCREST   N/A     50  17  26 NW25G32     N/A
$$

...SOME OBSERVATIONS FROM AROUND THE REGION...

CITY           SKY/WX    TMP DP  RH WIND       PRES   REMARKS
DENVER         MOSUNNY   48   9  20 E3        30.10F
GRAND JUNCTION CLOUDY    41  13  31 CALM      30.18F
LARAMIE        SUNNY     43   9  24 NW14      30.11F
CHEYENNE       SUNNY     45  10  24 N15G23    30.09F
CASPER         SUNNY     42  16  34 SW7       30.11F
BISMARCK       CLOUDY    36  26  67 NW16G30   29.95R WCI  26
RAPID CITY     CLOUDY    47  21  35 NW31G39   30.01F
PIERRE         SUNNY     46  28  49 NW30G37   29.91F
SIOUX FALLS    CLOUDY    38  30  73 N31       29.78S WCI  25
OMAHA          MOSUNNY   51  30  44 NW29G38   29.75S
GRAND ISLAND   SUNNY     52  25  35 NW25G37   29.88F
SCOTTSBLUFF    SUNNY     50  15  24 NW22G32   30.07F
KANSAS CITY    SUNNY     59  28  30 NW23G33   29.73S
HILL CITY      SUNNY     59  18  20 N28G36    29.95F
WICHITA        MOSUNNY   65  21  18 N23G31    29.88F
DODGE CITY     SUNNY     59  18  20 N21       29.98F
OKLAHOMA CITY  MOSUNNY   62  22  21 N10       29.93F
DALLAS         MOSUNNY   74  17  11 SW16G24   29.94F
AMARILLO       SUNNY     62  12  14 N18G24    30.03F
$$




USA.gov is the U.S. government's official web portal to all federal, state and local government web resources and services.